Погода в Каменниках

Россия / Ярославская область     58°09′07″N   38°39′40″E
темп.,
°C
ветер,
м/с
пор.,
м/с
влажн.,
%
обл.,
%
осадки,
мм/ч
давл.,
гПа
погр.,
м
9 марта, вт
вт900:00−18ссз459644 0.0 101071
03:00−20с459955 0.0 101382
06:00−22с449877 0.0 101562
09:00−23с469674 0.0 1017193
12:00−21ссз469740 0.0 1018283
15:00−19ссз579465 0.0 1019371
18:00−20ссз589696 0.0 1021178
21:00−22с479892 0.0 102398
10 марта, ср
ср1000:00−25с349812 0.0 102543
03:00−26с34996 0.0 102637
06:00−27с34980 0.0 102830
09:00−24ссз34940 0.0 1029113
12:00−21зсз468932 0.0 1028242
15:00−16сз598363 0.0 1028506
18:00−17сз469268 0.0 102890
21:00−17сз349882 0.0 102939
11 марта, чт
чт1100:00−18ссз339988 0.0 103024
03:00−19сз339989 0.1 103122
06:00−20сз3310084 0.0 103121
09:00−19зсз239879 0.0 103280
12:00−16зсз229458 0.0 1032181
15:00−14зюз129256 0.0 1031131
18:00−14ююз239629 0.0 103023
21:00−16ююз449619 0.0 103048
12 марта, пт
пт1200:00−16ююз46910 0.0 102982
03:00−17ююз59890 0.0 1028123
06:00−18ююз59880 0.0 1028126
09:00−17ююз610840 0.0 1028224
12:00−12ююз59790 0.0 1027348
15:00−9ю610780 0.0 1025386
18:00−10ю510850 0.0 1024214
21:00−11ю713890 0.0 1023269
13 марта, сб
сб1300:00−13ю613900 0.0 1023259
03:00−14ю612870 0.0 1021244
06:00−15ююв613860 0.0 1020285
09:00−13ю713879 0.0 1018474
12:00−8ю81289100 0.1 1017762
15:00−6ю71289100 0.4 1015806
18:00−5ю51095100 0.3 1014382
21:00−4ю589596 0.4 1013188